RH
30 33 35 34 37 43 46 50 54 58 65 73 80 84 85 88 90 90 89 88 90 89 89 91 89 89 91 89 90 91 92 94 95 93 91 87 86 86 82 77 75 72 72 72 70 72 75 78 76 72 70 65
29 32 35 34 34 39 42 46 52 55 60 69 78 82 85 90 91 89 90 90 91 90 87 90 90 89 92 92 92 92 91 92 92 94 95 91 89 89 87 84 81 76 75 74 72 71 72 75 75 73 70 62
29 33 35 36 37 39 40 47 58 64 68 74 82 86 87 88 90 90 91 91 91 90 87 89 91 90 92 93 92 93 94 93 91 93 95 92 90 91 91 89 87 83 79 79 77 72 68 68 68 69 69 62
28 31 35 37 38 38 41 48 59 71 81 87 91 92 90 86 88 91 92 93 92 91 88 88 92 91 92 93 91 91 95 95 92 91 90 87 87 90 92 91 91 87 82 81 79 75 69 64 62 62 61 56
25 28 32 35 37 38 41 48 56 70 84 88 90 91 90 88 87 91 93 94 93 92 90 89 92 92 92 93 89 88 90 90 88 85 84 83 82 85 89 90 91 91 88 85 81 78 72 66 64 61 54 49
25 26 28 33 37 39 42 47 52 65 80 86 88 87 88 89 90 90 91 92 93 92 91 90 93 93 92 92 89 88 86 83 82 82 81 80 78 80 86 88 91 93 93 91 86 80 74 70 66 60 52 49
25 26 26 29 35 42 48 50 52 64 82 90 91 89 89 91 92 91 91 93 93 92 90 90 92 94 92 91 90 88 86 81 82 82 81 81 78 79 83 86 90 92 93 95 92 86 79 73 68 61 56 55
25 27 27 27 30 41 50 52 59 70 82 88 88 88 90 91 94 94 92 92 93 91 90 88 89 91 91 91 91 90 88 84 84 86 83 82 80 78 81 84 86 86 89 92 94 92 86 81 76 69 61 59
25 26 28 28 27 33 44 52 62 67 69 76 80 85 90 91 92 91 90 91 91 90 89 87 87 89 89 90 92 92 93 88 85 87 83 78 78 78 81 84 83 81 83 85 87 89 88 88 86 78 69 63
27 27 27 29 27 27 35 43 52 59 65 71 73 76 82 83 84 86 90 92 89 88 88 87 88 88 87 89 93 94 94 89 85 83 79 76 76 76 78 81 81 79 79 79 80 81 81 84 85 81 74 70
29 28 28 30 31 29 33 37 42 50 58 64 64 67 74 73 77 85 89 90 89 87 87 88 88 87 87 88 91 92 90 87 85 81 77 76 75 76 77 78 77 75 75 75 75 75 74 75 76 75 72 72
28 30 30 29 32 34 35 38 42 43 45 51 56 65 74 71 76 90 92 90 88 85 85 90 90 88 88 88 87 88 88 87 85 82 79 77 76 76 80 81 77 74 72 72 72 72 72 71 71 69 67 68
28 30 31 30 31 33 35 40 42 41 40 44 51 56 62 63 70 87 93 92 90 87 86 88 90 89 87 86 86 86 87 87 86 84 83 80 77 76 79 81 80 77 75 74 73 74 76 76 75 74 70 66
31 31 33 33 33 32 36 44 45 44 43 43 47 50 53 57 64 79 90 93 93 91 89 87 87 88 86 86 87 88 87 86 86 87 86 85 82 79 80 81 79 78 77 76 75 76 78 79 80 80 78 74
34 34 34 35 36 36 38 45 49 48 47 47 47 47 51 57 62 72 81 86 92 93 91 88 82 82 86 89 89 89 89 87 86 87 87 86 84 81 82 86 85 82 80 79 78 79 79 79 79 80 80 78
34 35 35 35 37 39 39 44 53 53 50 51 51 48 50 55 60 65 71 78 87 92 90 85 79 79 85 90 90 91 90 89 87 86 85 85 84 81 81 85 87 87 87 86 84 83 82 81 79 78 77 77
35 35 35 36 36 39 41 44 55 60 55 55 58 56 52 53 60 66 70 74 80 84 86 85 82 79 83 86 88 92 92 91 89 87 86 86 84 81 82 84 84 84 86 88 89 89 88 86 83 80 78 77
33 35 35 36 36 38 41 43 53 63 62 60 62 63 60 55 57 62 64 69 74 77 80 84 87 85 85 86 86 91 94 93 92 91 90 88 85 82 82 83 83 82 82 83 86 88 89 89 87 84 82 80
24 29 32 33 35 36 40 43 49 59 64 66 65 63 65 60 54 55 58 63 68 72 77 80 88 93 92 91 90 93 95 94 95 94 93 91 87 83 81 82 82 81 80 80 81 83 84 86 85 84 83 81
16 19 23 27 30 31 35 40 46 54 60 70 72 64 63 64 59 56 56 62 64 68 77 79 84 93 96 94 94 96 97 96 97 97 97 95 91 87 83 82 82 80 77 76 76 77 77 78 79 79 79 79
15 15 16 21 27 29 29 32 39 47 54 66 72 65 63 63 62 62 57 60 64 64 71 78 81 87 92 94 95 98 98 97 98 99 99 98 96 93 88 84 82 78 75 73 71 71 71 71 71 72 73 74
18 17 16 17 22 28 30 30 31 36 45 55 63 66 68 66 67 72 67 62 64 63 66 76 80 80 83 87 91 97 100 99 99 99 100 100 99 98 95 90 86 80 75 72 71 70 70 68 67 68 69 69
27 24 22 20 21 26 32 34 30 29 34 43 54 61 67 74 78 80 77 69 67 66 65 72 78 79 81 84 85 89 96 99 99 99 100 99 99 99 99 97 93 89 82 75 72 70 67 65 65 64 65 65
33 32 30 28 27 29 35 38 35 32 32 35 44 50 55 68 79 83 81 74 70 71 69 68 71 77 83 86 84 83 88 95 97 99 100 98 98 98 98 100 98 97 91 82 74 70 66 63 62 61 61 61
28 30 32 33 32 33 38 43 42 39 37 35 37 41 44 51 64 76 78 70 68 72 72 70 69 71 78 83 86 85 85 89 93 97 100 99 99 99 99 100 100 100 97 90 81 76 74 71 67 64 60 58
23 24 25 28 30 31 35 42 46 45 43 41 38 38 40 43 50 58 64 66 72 74 74 77 76 72 71 73 78 84 84 84 88 95 100 101 99 99 99 100 100 100 99 97 92 88 87 84 80 73 66 61
24 25 24 24 25 26 28 32 37 41 43 44 44 42 42 43 44 47 55 65 72 75 75 78 81 79 77 74 73 78 81 82 85 92 97 99 101 100 99 100 100 99 100 99 98 97 95 93 91 86 78 71
29 29 29 28 27 26 26 26 27 31 33 36 40 45 47 46 43 43 53 64 68 71 73 74 80 82 80 80 79 76 77 78 80 86 90 91 95 97 97 99 100 99 100 100 99 99 99 98 97 93 88 81
37 36 35 34 32 31 28 27 27 26 27 27 29 35 44 49 46 41 45 56 64 67 68 72 82 86 82 82 84 82 80 79 77 80 88 90 88 87 91 97 100 100 100 100 100 100 99 99 98 96 94 90
40 40 40 39 38 36 34 31 30 28 27 26 25 26 31 39 45 43 39 43 53 61 63 68 79 88 88 84 86 86 85 84 81 79 86 91 88 85 87 92 97 100 99 99 100 100 99 98 97 96 95 94
35 37 38 39 39 39 37 36 33 32 31 30 28 27 26 28 33 40 40 37 41 49 54 60 70 82 85 84 88 92 90 88 87 84 84 86 85 83 82 83 87 94 99 99 98 99 100 99 98 97 95 95